Home   Weather   Bodrum   Past weeks

Flag for Turkey Past Weather in Bodrum, Turkey — Yesterday and Last 2 Weeks

Now
57 °F

Sunny.


Feels Like: 56 °F
Forecast: 41 / 55 °F
Wind: 7 mph from North

Location: Bodrum

Current Time: Jan 21, 2017 at 6:48:50 pm

Latest Report: Jan 21, 2017 at 5:00 pm


Visibility: 13 mi

Pressure: 30.19 "Hg

Humidity: 49%

Dew Point: 38 °F

Location of BodrumLocation

Past Weather in Bodrum — Graph

°F

Bodrum Temperature Yesterday

Maximum temperature yesterday: 59 °F (at 3:00 pm)
Minimum temperature yesterday: 47 °F (at 3:00 am)
Average temperature yesterday: 54 °F

High & Low Weather Summary for the Past Weeks

 TemperatureHumidityPressure
High65 °F (Jan 18, 4:00 pm)99% (Jan 6, 9:00 pm)30.28 "Hg (Jan 6, 9:00 pm)
Low34 °F (Jan 9, 9:00 am)30% (Jan 13, 1:00 pm)29.56 "Hg (Jan 7, 3:00 am)
Average52 °F67%30.00 "Hg
* Reported Jan 6 5:00 pm — Jan 21 5:00 pm, Bodrum, Weather by CustomWeather, © 2017

Note: Actual official high and low records may vary slightly from our data, if they occured in-between our weather recording intervals... More about our weather records

Advertising

Bodrum Weather History for the Previous 24 Hours

Scroll right to see more
 ConditionsComfort  
Time TempWeatherWind HumidityBarometerVisibility
5:00 pm
Sat, Jan 21
57 °FSunny.7 mph49%30.19 "Hg12 mi
4:00 pm57 °FSunny.9 mph48%30.19 "Hg12 mi
3:00 pm57 °FSunny.9 mph50%30.19 "Hg12 mi
2:00 pm57 °FSunny.8 mph51%30.21 "Hg12 mi
1:00 pm57 °FSunny.6 mph49%30.23 "Hg12 mi
12:00 pm55 °FSunny.5 mph53%30.25 "Hg12 mi
11:00 am52 °FSunny.5 mph55%30.26 "Hg12 mi
10:00 am48 °FSunny.3 mph60%30.25 "Hg12 mi
9:00 am43 °FSunny.1 mph69%30.24 "Hg12 mi
6:00 am43 °FClear.2 mph72%30.23 "Hg12 mi
3:00 am47 °FClear.6 mph75%30.22 "Hg12 mi
12:00 am47 °FClear.No wind75%30.21 "Hg12 mi
9:00 pm
Fri, Jan 20
50 °FClear.8 mph63%30.23 "Hg12 mi
8:00 pm50 °FClear.7 mph65%30.22 "Hg12 mi
7:00 pm51 °FClear.7 mph62%30.21 "Hg12 mi
6:00 pm54 °FSunny.8 mph62%30.21 "Hg12 mi
Weather by CustomWeather, © 2017

See weather overviewHow to use our weather pages